FENGYUN 1C DEB, 31021

Orbit data source: Space-Track

FENGYUN 1C DEB, 31021 is space debris in SSO originally from a launch on Mon, 10 May 1999 UTC launched from the Taiyaun Space Center, China (TSC). Fengyun 1C debris stems from the Chinese weather satellite Fengyun-1C, which was intentionally destroyed by a Chinese anti-satellite missile in 2007. This event dramatically increased the amount of space debris, with thousands of trackable fragments posing hazards to satellites and human spaceflight. The Fengyun 1C debris cloud has become a focal point in discussions about space sustainability and the need for international regulations to prevent the creation of new debris.

Loading next visibility...
Identifier
31021, 1999-025BDP
Orbit
SSO
Country
Flag of CNCN / PRC
Related business
Manufacturer
Unknown
Mission
Spacecraft
Bus & Motor
Unknown
Mass
Unknown
Launch date (UTC)
1999-05-10 (27 years ago)
Launch vehicle
Unknown
Launch site
Taiyaun Space Center, China (TSC)
Object type
Payload
Rocket body
Debris
Shape & HBR
Unknown shape, 0.1 m
Radar Cross Section
Small (<0.1 m²)

Expand to show TLE details & history
Last TLE update: 2 days ago

TLE from 2 days ago
0 FENGYUN 1C DEB
1 31021U 99025BDP 26236.58895379  .00009196  00000-0  71437-3 0  9995
2 31021  98.3698   1.5698 0257842 147.3254 214.4208 14.78848094771958
Epoch: 2026-08-24T14:08Z
TLE epoch observation values (Epoch: 2026-08-24T14:08:05.607Z)
Latitude
-0.00004°
Longitude
176.67795°
Altitude
786.571 km
Speed
7.38 km/s
True Right ascension
00h 06m 16s
True Declination
0° 00' 00"
Sunlit
Object was in full shadow at epoch
Visualization orbit readout
Latitude
Unknown
Longitude
Unknown
Altitude
Unknown
Speed
Unknown
Apparent Right ascension
Unknown
Apparent Declination
Unknown
Sunlit
N/A
Visualization observer readout
Local Sidereal Time
23:19:07
Azimuth
Unknown
Elevation
Unknown
Doppler factor
Unknown
Orbital elements
Apogee altitude
810.723 km
Perigee altitude
449.324 km
Semi-major axis
7,008.161 km
Eccentricity
0.02578
Inclination
98.3698°
RAAN
1.5698°
Arg. of periapsis
147.3254°
True anomaly
212.79415°
Mean anomaly
214.4208°
Eccentric anomaly
213.60319°
Mean motion
3.69945 °/min
Orbital period
97.31 mins
BSTAR
0.00071437
Loading maneuver chart data...
Computing Atmospheric mass density...
Loading historical data...
Loading historical data...
Loading historical data...
Loading historical data...
Loading historical data...
Loading historical data...
Loading historical data...

Documentation

Showing up to 5 results
|